Flag for Mongolia Weather past 2 weeks in Ulaanbaatar, Mongolia

Now
66 °F

Scattered clouds.


Feels Like: 66 °F
Forecast: 37 / 67 °F
Wind: 8 mph from West

Location: Ulan-Bator

Current Time: Jun 2, 2015 at 4:25:39 PM

Latest Report: Jun 2, 2015 at 4:00 PM


Visibility: N/A

Pressure: 30.07 "Hg

Humidity: 14%

Dew point: 16 °F

Location of UlaanbaatarLocation

Historic Weather in Ulaanbaatar — Graph

°F

Ulaanbaatar temperature yesterday

Maximum temperature yesterday: 61 °F (at 3:30 PM)
Minimum temperature yesterday: 41 °F (at 11:30 PM)
Average temperature yesterday: 52 °F

Past Weeks' High & Low Weather Summary

 TemperatureHumidityPressure
High82 °F (May 23, 3:00 PM)88% (May 26, 4:00 AM)30.18 "Hg (May 26, 4:00 AM)
Low21 °F (May 19, 6:00 AM)8% (May 23, 5:00 PM)29.39 "Hg (May 30, 2:30 PM)
Average55 °F38%29.84 "Hg
* Reported May 18 3:00 PM — Jun 2 3:00 PM, Ulaanbaatar, Weather by CustomWeather, © 2015

Note: Actual official high and low records may vary slightly from our data, if they occured in-between our weather recording intervals... More about our weather records

Advertising

Ulaanbaatar weather history for previous 24 hours

 ConditionsComfort  
Time TempWeatherWind HumidityBarometerVisibility
3:00 PM
Tue, Jun 2
63 °FPassing clouds.8 mph16%30.09 "HgN/A
2:30 PM63 °FScattered clouds.8 mph17%30.09 "HgN/A
2:00 PM63 °FScattered clouds.8 mph17%30.09 "HgN/A
1:30 PM63 °FScattered clouds.10 mph22%30.12 "HgN/A
12:30 PM61 °FScattered clouds.3 mph23%30.12 "HgN/A
12:00 PM59 °FScattered clouds.3 mph31%30.15 "HgN/A
11:30 AM57 °FPassing clouds.6 mph31%30.15 "HgN/A
11:00 AM54 °FPassing clouds.6 mph35%30.15 "HgN/A
10:30 AM52 °FPassing clouds.6 mph38%30.15 "HgN/A
10:00 AM50 °FSunny.1 mph40%30.18 "Hg10 mi
9:30 AM46 °FSunny.No wind46%30.18 "Hg10 mi
9:00 AM45 °FSunny.1 mph46%30.15 "Hg10 mi
8:30 AM43 °FSunny.No wind49%30.15 "Hg10 mi
8:00 AM39 °FSunny.No wind61%30.15 "Hg10 mi
7:30 AM39 °FSunny.No wind56%30.15 "Hg10 mi
7:00 AM34 °FSunny.1 mph70%30.15 "Hg10 mi
6:30 AM34 °FClear.No wind70%30.12 "Hg10 mi
6:00 AM34 °FClear.1 mph70%30.12 "Hg10 mi
5:30 AM32 °FClear.1 mph75%30.12 "Hg10 mi
5:00 AM36 °FClear.3 mph65%30.12 "Hg10 mi
4:30 AM36 °FClear.1 mph65%30.12 "Hg10 mi
4:00 AM34 °FClear.1 mph70%30.12 "Hg10 mi
3:30 AM36 °FClear.No wind65%30.12 "Hg10 mi
3:00 AM36 °FClear.No wind70%30.12 "Hg10 mi
2:30 AM36 °FClear.6 mph65%30.09 "Hg10 mi
2:00 AM39 °FClear.1 mph56%30.09 "Hg10 mi
1:30 AM37 °FClear.6 mph60%30.09 "Hg10 mi
1:00 AM37 °FClear.6 mph60%30.09 "Hg10 mi
12:30 AM39 °FClear.8 mph56%30.07 "Hg10 mi
12:00 AM41 °FClear.1 mph57%30.07 "Hg10 mi
11:30 PM
Mon, Jun 1
41 °FClear.3 mph53%30.07 "Hg10 mi
11:00 PM48 °FClear.1 mph32%30.07 "Hg10 mi
10:30 PM50 °FSunny.1 mph28%30.04 "Hg10 mi
10:00 PM54 °FSunny.8 mph26%30.01 "Hg10 mi
9:30 PM57 °FSunny.13 mph20%30.01 "Hg10 mi
9:00 PM57 °FSunny.13 mph18%29.98 "Hg10 mi
8:30 PM59 °FPassing clouds.17 mph17%29.98 "HgN/A
8:00 PM59 °FPassing clouds.15 mph17%29.98 "HgN/A
7:30 PM59 °FPartly sunny.13 mph17%29.95 "HgN/A
7:00 PM59 °FPartly sunny.15 mph17%29.95 "HgN/A
6:30 PM59 °FPartly sunny.15 mph18%29.95 "HgN/A
6:00 PM59 °FPassing clouds.17 mph18%29.95 "HgN/A
5:30 PM59 °FScattered clouds.20 mph20%29.95 "HgN/A
5:00 PM61 °FScattered clouds.20 mph19%29.95 "HgN/A
4:30 PM59 °FScattered clouds.15 mph21%29.95 "HgN/A
4:00 PM61 °FScattered clouds.20 mph20%29.92 "HgN/A
Weather by CustomWeather, © 2015

See weather overviewHow to use our weather pages